Quakertown, PA

7:54 AM EDT on March 29, 2017 (GMT -0400)
Quakertown

Weather History for KUKT - November, 2012

Change the Weather History Date:

Saturday, November 17, 2012

  Actual Average (KABE) Record (KABE)
Temperature  
Mean Temperature 38 °F -  
Max Temperature 51 °F 50 °F 71 °F (1928)
Min Temperature 26 °F 32 °F 14 °F (1933)
Degree Days  
Heating Degree Days 26    
Moisture  
Dew Point 28 °F    
Average Humidity 71    
Maximum Humidity 93    
Minimum Humidity 44    
Precipitation  
Precipitation 0.00 in - - ()
Sea Level Pressure  
Sea Level Pressure 30.56 in    
Wind  
Wind Speed 1 mph (NE)    
Max Wind Speed 8 mph    
Max Gust Speed -    
Visibility 10 miles    
Events      
Averages and records for this station are not official NWS values.
T = Trace of Precipitation, MM = Missing Value Source: NWS Daily Summary

Daily Weather History Graph

Daily Weather History Graph

Search for Another Location

Airport or City:

Trip Planner

Search our weather history database for the weather conditions in past years. The results will help you decide how hot, cold, wet, or windy it might be!

Date:

Astronomy

Nov. 17, 2012 Rise Set
Actual Time 6:50 AM EST 4:42 PM EST
Civil Twilight 6:21 AM EST 5:11 PM EST
Nautical Twilight 5:48 AM EST 5:44 PM EST
Astronomical Twilight 5:15 AM EST 6:17 PM EST
Moon 10:33 AM EST (11/17) 8:49 PM EST (11/17)
Length of Visible Light 10h 50m
Length of Day
9h 51m
Waxing Crescent, 20% of the Moon is Illuminated
Nov 17
Waxing Crescent
Nov 20
First Quarter
Nov 28
Full
Dec 6
Last Quarter
Dec 13
New

Hourly Weather History & Observations

Time (EST) Temp. Windchill Dew Point Humidity Pressure Visibility Wind Dir Wind Speed Gust Speed Precip Events Conditions
12:15 AM 28.4 °F - 24.8 °F 86% 30.44 in 10.0 mi Calm Calm - N/A   Clear
12:35 AM 28.4 °F - 24.8 °F 86% 30.44 in 10.0 mi Calm Calm - N/A   Clear
12:55 AM 32.0 °F - 24.8 °F 75% 30.44 in 10.0 mi Calm Calm - N/A   Clear
1:15 AM 28.4 °F - 24.8 °F 86% 30.45 in 10.0 mi Calm Calm - N/A   Clear
1:35 AM 33.8 °F - 23.0 °F 65% 30.45 in 10.0 mi Calm Calm - N/A   Clear
1:55 AM 32.0 °F - 23.0 °F 69% 30.46 in 10.0 mi Calm Calm - N/A   Clear
2:15 AM 32.0 °F - 24.8 °F 75% 30.46 in 10.0 mi Calm Calm - N/A   Clear
2:35 AM 30.2 °F - 24.8 °F 80% 30.46 in 10.0 mi Calm Calm - N/A   Clear
2:55 AM 28.4 °F - 24.8 °F 86% 30.46 in 10.0 mi Calm Calm - N/A   Clear
3:15 AM 28.4 °F - 24.8 °F 86% 30.47 in 8.0 mi Calm Calm - N/A   Clear
3:35 AM 28.4 °F - 23.0 °F 80% 30.47 in 8.0 mi Calm Calm - N/A   Clear
3:55 AM 26.6 °F - 23.0 °F 86% 30.48 in 10.0 mi Calm Calm - N/A   Clear
4:15 AM 26.6 °F - 23.0 °F 86% 30.48 in 10.0 mi Calm Calm - N/A   Clear
4:35 AM 26.6 °F - 23.0 °F 86% 30.49 in 10.0 mi Calm Calm - N/A   Clear
5:15 AM 28.4 °F - 23.0 °F 80% 30.51 in 10.0 mi Calm Calm - N/A   Clear
5:35 AM 30.2 °F - 24.8 °F 80% 30.52 in 10.0 mi Calm Calm - N/A   Clear
5:55 AM 28.4 °F - 24.8 °F 86% 30.52 in 10.0 mi Calm Calm - N/A   Clear
6:15 AM 28.4 °F - 24.8 °F 86% 30.53 in 10.0 mi Calm Calm - N/A   Clear
6:35 AM 26.6 °F - 23.0 °F 86% 30.54 in 10.0 mi Calm Calm - N/A   Clear
6:55 AM 26.6 °F - 23.0 °F 86% 30.54 in 10.0 mi Calm Calm - N/A   Clear
7:15 AM 26.6 °F - 24.8 °F 93% 30.55 in 10.0 mi Calm Calm - N/A   Clear
7:35 AM 28.4 °F - 24.8 °F 86% 30.56 in 10.0 mi Calm Calm - N/A   Clear
7:55 AM 35.6 °F - 26.6 °F 70% 30.57 in 10.0 mi Calm Calm - N/A   Clear
8:15 AM 37.4 °F - 26.6 °F 65% 30.58 in 10.0 mi Calm Calm - N/A   Clear
8:35 AM 39.2 °F 37.0 °F 26.6 °F 61% 30.58 in 10.0 mi NNE 3.5 mph - N/A   Clear
8:55 AM 41.0 °F 39.0 °F 28.4 °F 61% 30.59 in 10.0 mi NNE 3.5 mph - N/A   Clear
9:15 AM 41.0 °F 36.4 °F 28.4 °F 61% 30.59 in 10.0 mi NE 6.9 mph - N/A   Clear
9:35 AM 42.8 °F 41.1 °F 28.4 °F 57% 30.60 in 10.0 mi NE 3.5 mph - N/A   Clear
9:55 AM 44.6 °F 40.7 °F 28.4 °F 53% 30.60 in 10.0 mi NE 6.9 mph - N/A   Clear
10:15 AM 44.6 °F 40.2 °F 28.4 °F 53% 30.60 in 10.0 mi NE 8.1 mph - N/A   Clear
10:35 AM 46.4 °F 42.9 °F 30.2 °F 53% 30.60 in 10.0 mi NNE 6.9 mph - N/A   Clear
10:55 AM 46.4 °F 44.3 °F 30.2 °F 53% 30.60 in 10.0 mi NE 4.6 mph - N/A   Clear
11:15 AM 46.4 °F 44.3 °F 30.2 °F 53% 30.59 in 10.0 mi NE 4.6 mph - N/A   Clear
11:35 AM 48.2 °F - 30.2 °F 50% 30.59 in 10.0 mi NE 4.6 mph - N/A   Clear
11:55 AM 48.2 °F - 32.0 °F 54% 30.58 in 10.0 mi Calm Calm - N/A   Clear
12:15 PM 48.2 °F - 32.0 °F 54% 30.58 in 10.0 mi North 3.5 mph - N/A   Clear
12:35 PM 50.0 °F - 32.0 °F 50% 30.58 in 10.0 mi Calm Calm - N/A   Clear
12:55 PM 50.0 °F - 32.0 °F 50% 30.57 in 10.0 mi NNE 5.8 mph - N/A   Clear
1:15 PM 50.0 °F - 32.0 °F 50% 30.57 in 10.0 mi NE 4.6 mph - N/A   Clear
1:35 PM 51.8 °F - 32.0 °F 47% 30.57 in 10.0 mi NW 3.5 mph - N/A   Clear
1:55 PM 51.8 °F - 32.0 °F 47% 30.56 in 10.0 mi Calm Calm - N/A   Clear
2:15 PM 51.8 °F - 32.0 °F 47% 30.56 in 10.0 mi NE 3.5 mph - N/A   Clear
2:35 PM 51.8 °F - 32.0 °F 47% 30.56 in 10.0 mi NE 3.5 mph - N/A   Clear
2:55 PM 51.8 °F - 32.0 °F 47% 30.56 in 10.0 mi NE 4.6 mph - N/A   Clear
3:15 PM 51.8 °F - 32.0 °F 47% 30.56 in 10.0 mi NE 4.6 mph - N/A   Clear
3:35 PM 51.8 °F - 30.2 °F 44% 30.57 in 10.0 mi Calm Calm - N/A   Clear
3:55 PM 50.0 °F - 32.0 °F 50% 30.57 in 10.0 mi Calm Calm - N/A   Clear
4:15 PM 50.0 °F - 30.2 °F 47% 30.57 in 10.0 mi Calm Calm - N/A   Clear
4:35 PM 48.2 °F - 30.2 °F 50% 30.57 in 10.0 mi Calm Calm - N/A   Clear
4:55 PM 46.4 °F - 32.0 °F 57% 30.58 in 10.0 mi Calm Calm - N/A   Clear
5:15 PM 41.0 °F - 32.0 °F 70% 30.58 in 10.0 mi Calm Calm - N/A   Clear
5:35 PM 41.0 °F - 32.0 °F 70% 30.58 in 10.0 mi Calm Calm - N/A   Clear
5:55 PM 39.2 °F - 30.2 °F 70% 30.59 in 10.0 mi Calm Calm - N/A   Clear
6:15 PM 37.4 °F - 30.2 °F 75% 30.59 in 10.0 mi Calm Calm - N/A   Clear
6:35 PM 37.4 °F - 30.2 °F 75% 30.60 in 10.0 mi Calm Calm - N/A   Clear
6:55 PM 35.6 °F - 30.2 °F 81% 30.60 in 10.0 mi Calm Calm - N/A   Clear
7:15 PM 35.6 °F - 28.4 °F 75% 30.60 in 10.0 mi Calm Calm - N/A   Clear
7:35 PM 33.8 °F - 28.4 °F 81% 30.59 in 10.0 mi Calm Calm - N/A   Clear
7:55 PM 32.0 °F - 28.4 °F 87% 30.58 in 10.0 mi Calm Calm - N/A   Clear
8:15 PM 32.0 °F - 28.4 °F 87% 30.59 in 10.0 mi Calm Calm - N/A   Clear
8:35 PM 32.0 °F - 28.4 °F 87% 30.60 in 10.0 mi Calm Calm - N/A   Clear
8:55 PM 32.0 °F - 28.4 °F 87% 30.60 in 10.0 mi Calm Calm - N/A   Clear
9:15 PM 32.0 °F - 28.4 °F 87% 30.61 in 10.0 mi Calm Calm - N/A   Clear
9:55 PM 30.2 °F - 26.6 °F 86% 30.61 in 7.0 mi Calm Calm - N/A   Clear
10:15 PM 30.2 °F - 26.6 °F 86% 30.61 in 7.0 mi Calm Calm - N/A   Clear
10:35 PM 28.4 °F - 26.6 °F 93% 30.61 in 9.0 mi Calm Calm - N/A   Clear
10:55 PM 28.4 °F - 26.6 °F 93% 30.62 in 10.0 mi Calm Calm - N/A   Clear
11:15 PM 28.4 °F - 26.6 °F 93% 30.62 in 9.0 mi Calm Calm - N/A   Clear
11:35 PM 28.4 °F - 26.6 °F 93% 30.63 in 8.0 mi Calm Calm - N/A   Clear
11:55 PM 28.4 °F - 26.6 °F 93% 30.63 in 8.0 mi Calm Calm - N/A   Clear